Wind_Speed
13 11 10 10 10 10 11 10 10 9 10 8 7 6 5 4 3 4 4 3 2 2 2 2 1 2 2 2 3 3 4 5 4 5 5 6 6 6 6 6 6 6 6
12 11 10 10 10 10 10 9 9 9 9 8 8 6 5 4 4 3 3 3 3 3 2 2 2 2 2 3 3 4 4 5 5 5 6 6 7 7 7 7 7 6 6
10 11 10 9 9 9 9 9 9 9 9 8 8 7 5 4 3 3 3 3 2 3 3 3 2 3 4 4 4 5 5 5 5 5 6 6 6 7 6 6 7 6 7
9 10 10 9 9 10 9 9 9 9 9 8 8 7 6 4 3 3 3 3 2 2 2 3 4 4 4 4 5 6 5 5 4 5 6 6 5 6 6 6 7 7 8
8 9 9 10 9 9 9 10 9 9 9 8 7 7 6 5 3 3 3 3 2 2 2 3 4 5 4 5 6 6 5 4 4 5 5 6 6 6 7 6 6 7 7
8 8 9 10 10 9 9 9 9 9 9 9 8 6 5 5 5 4 4 3 3 3 4 4 4 5 6 6 5 5 5 5 5 6 6 6 6 7 7 7 7 7 8
9 9 9 10 11 10 9 9 9 9 10 9 8 6 5 5 5 5 4 4 4 4 4 4 5 5 6 6 5 5 5 6 6 7 7 7 7 7 7 7 8 8 9
9 9 9 9 10 11 10 9 9 9 9 9 9 7 6 6 6 5 6 6 5 4 4 4 5 5 5 6 6 6 6 6 6 7 8 7 7 8 8 8 9 9 9
10 10 9 10 10 10 10 10 10 10 10 10 10 9 8 6 6 6 6 6 5 5 5 5 5 6 6 6 6 6 7 6 6 7 8 8 8 8 8 9 9 10 10
11 11 11 11 11 10 10 10 10 10 10 10 10 10 9 7 7 6 7 7 6 5 5 5 6 7 6 6 6 6 7 7 7 7 8 8 8 9 9 10 10 10 10
11 11 12 12 11 11 11 11 10 10 10 10 10 10 9 9 8 7 7 6 6 5 6 6 7 7 7 7 7 7 7 8 8 8 8 8 8 9 10 11 11 11 12
12 12 13 13 13 13 12 12 12 11 11 11 10 10 10 10 9 8 7 7 6 6 6 6 7 7 7 7 8 9 9 9 9 9 9 9 9 10 11 11 12 12 13
14 14 15 15 14 14 14 13 13 13 12 12 11 11 11 11 10 9 8 8 8 7 7 7 7 8 8 8 9 9 9 9 10 9 9 9 10 11 12 12 13 14 15
16 16 16 16 16 16 15 15 15 14 13 13 12 11 11 11 10 9 9 9 9 8 8 8 8 8 9 9 10 10 10 10 10 10 10 10 11 12 13 14 15 15 16
17 17 18 18 17 17 16 16 16 15 14 13 13 12 11 11 10 9 9 9 10 9 9 9 10 10 11 11 11 11 11 11 11 11 12 12 12 14 15 16 16 16 17
19 19 19 19 19 18 17 17 16 16 15 13 12 12 12 11 10 10 10 10 11 11 11 11 11 11 11 11 12 12 12 13 13 13 13 14 15 16 17 18 17 18 18
22 20 20 20 20 20 18 18 17 17 15 14 13 13 13 12 12 12 12 12 12 12 12 12 12 12 12 13 13 14 13 14 14 14 15 16 17 18 18 19 19 19 20
24 22 21 22 21 20 19 18 18 17 16 15 15 14 14 13 13 13 13 13 13 14 14 14 14 14 14 15 15 15 15 15 16 17 17 18 19 19 21 21 21 22 23
26 25 24 23 22 21 20 20 19 18 17 16 16 15 15 14 14 15 15 15 16 15 15 15 15 15 16 16 17 17 17 18 18 19 19 20 21 22 22 23 24 24 25
28 26 25 24 23 22 21 21 20 19 18 18 17 17 17 17 16 16 16 17 16 16 16 16 16 17 17 18 19 19 20 20 21 21 22 23 23 24 24 25 25 25 26
29 28 26 25 25 23 22 21 20 20 20 20 19 19 19 18 18 18 18 18 18 18 18 18 18 19 19 19 20 21 21 22 23 23 23 24 24 25 26 27 27 27 28
30 29 27 26 25 25 24 23 22 22 21 21 20 21 21 20 20 20 20 20 20 20 20 20 20 21 21 21 22 23 23 24 25 25 25 25 26 27 27 28 28 29 29
31 30 28 28 27 26 26 25 25 24 24 23 22 22 22 22 22 22 22 22 22 22 22 22 22 22 22 23 23 25 26 26 26 26 27 27 27 28 29 29 29 30 30
32 31 29 28 28 29 28 27 27 26 26 25 24 24 24 23 23 23 23 23 23 23 23 24 24 25 25 25 25 26 27 27 27 28 28 29 29 29 29 29 29 30 30
32 31 31 30 30 30 30 30 29 28 28 27 26 25 24 24 24 24 24 24 24 25 25 26 26 26 26 27 27 27 28 28 28 29 29 29 30 30 30 30 30 31 31
31 32 31 31 31 31 31 31 31 30 30 29 28 27 26 26 26 25 25 25 25 26 27 28 28 28 28 28 28 28 28 28 28 29 29 30 30 30 30 31 31 31 31
Wind_Direction
26 29 34 34 30 25 24 27 30 26 28 35 37 46 55 60 71 73 66 62 71 71 55 28 354 320 300 301 311 303 300 306 307 307 306 306 311 308 308 309 312 314 311
22 22 26 27 24 21 21 27 28 25 25 31 33 39 48 56 59 64 60 46 42 45 35 7 347 334 322 319 322 318 309 310 313 314 312 316 313 313 311 308 308 314 314
17 16 18 22 20 14 14 17 18 17 19 25 27 31 43 49 47 50 38 28 35 25 18 6 333 318 318 325 332 328 317 316 322 321 324 322 317 307 304 308 311 313 314
11 13 14 15 16 13 10 11 10 11 13 18 17 22 29 39 40 35 27 13 357 350 4 351 328 319 322 328 330 327 324 329 327 323 324 321 322 326 319 311 309 314 316
0 4 7 9 8 7 5 4 5 6 7 11 15 20 24 31 25 10 3 358 349 332 331 330 323 328 335 334 333 335 330 332 339 337 334 330 327 329 332 325 322 321 323
348 352 358 2 2 2 0 358 0 5 3 5 4 10 13 12 7 4 2 353 349 334 325 321 328 337 339 334 334 343 349 350 347 341 335 330 330 329 325 328 328 323 322
336 339 347 355 359 356 354 356 352 357 360 1 360 359 1 356 354 350 350 347 343 338 344 350 352 346 340 338 337 341 338 335 335 335 335 328 327 330 332 331 330 327 325
325 331 337 346 351 353 352 348 347 349 353 354 354 350 354 356 354 354 354 357 356 358 358 356 349 343 339 338 338 340 336 328 323 327 332 329 332 333 336 335 335 336 333
315 320 327 333 339 345 347 346 345 346 349 350 352 354 352 353 355 352 350 350 348 346 346 342 333 328 325 322 322 328 334 330 323 324 328 330 334 335 334 332 328 330 330
306 308 313 320 325 332 336 337 334 335 338 340 341 342 343 340 344 347 341 335 332 330 328 329 332 328 318 312 315 324 327 328 324 322 325 330 337 340 331 331 329 328 328
300 307 310 311 313 316 320 324 325 326 326 327 328 329 330 328 329 334 329 324 322 316 315 321 327 326 323 316 311 313 317 323 321 320 322 325 327 327 326 326 325 324 324
291 299 305 306 307 308 310 313 315 316 317 318 318 318 318 319 318 318 320 321 316 313 311 315 324 325 327 327 323 319 315 318 318 316 317 317 318 320 322 322 321 321 320
283 291 297 299 303 304 304 305 307 307 308 311 312 311 310 310 308 307 312 313 310 311 312 313 317 320 324 326 327 324 322 319 317 318 316 314 316 318 319 322 322 322 322
277 285 290 293 297 299 300 301 301 301 301 302 303 303 304 302 299 299 302 303 304 305 307 305 308 313 316 316 317 318 318 320 321 319 316 312 314 315 317 318 320 321 321
277 282 286 289 292 294 295 297 297 297 296 296 296 296 298 298 293 294 294 296 298 299 299 299 302 307 309 310 311 310 311 314 315 314 313 312 313 314 315 318 318 317 318
277 278 281 284 288 290 290 290 291 292 294 294 293 291 293 295 289 288 291 290 291 292 295 297 297 302 304 304 306 307 307 306 308 308 307 308 310 312 313 315 315 314 315
275 276 278 281 282 285 286 286 286 286 287 289 289 287 288 290 287 286 289 287 289 290 293 296 295 296 297 298 302 304 305 304 304 304 304 304 306 308 310 311 311 310 312
272 274 276 278 279 280 281 281 282 282 284 285 286 286 284 284 285 286 288 289 291 291 291 291 292 291 293 295 299 301 302 302 302 301 301 302 305 307 307 308 309 309 310
269 270 273 275 276 276 275 275 278 279 282 283 284 284 283 281 282 285 286 287 288 290 290 290 292 294 294 294 296 296 298 299 299 300 300 301 302 304 305 306 307 308 309
264 265 266 269 271 271 271 271 273 276 278 280 279 281 282 280 280 282 284 284 285 288 288 291 292 293 293 293 294 294 294 295 295 297 298 299 300 301 303 305 305 306 307
261 262 262 264 267 266 266 268 270 271 273 275 276 279 279 279 278 278 280 283 283 285 287 289 292 295 295 294 294 294 293 294 294 296 297 297 298 299 301 303 303 304 305
260 260 259 260 262 263 263 266 268 269 271 273 275 276 276 277 278 278 278 280 283 284 286 288 290 294 296 295 295 295 296 297 297 297 297 297 298 298 300 302 302 303 304
258 258 258 258 258 260 262 264 265 266 269 270 273 275 275 277 278 279 278 278 281 283 285 287 288 290 293 293 293 294 296 297 297 298 297 297 298 297 298 301 303 302 302
257 257 257 257 258 258 260 263 263 263 266 269 271 275 276 277 278 280 279 279 280 280 283 286 287 289 291 293 293 293 293 294 295 297 299 298 297 296 297 298 300 302 302
255 256 256 257 257 258 259 261 261 263 264 266 269 272 274 276 278 279 279 279 279 280 283 285 286 287 289 291 292 291 291 292 294 296 297 297 297 296 296 296 298 299 300
254 256 256 256 257 258 259 260 261 263 264 266 268 270 272 275 277 278 279 279 280 282 283 285 286 287 288 289 289 289 290 291 294 294 294 296 297 296 296 296 297 298 299
Height
5901 5900 5898 5897 5896 5895 5894 5893 5891 5890 5889 5888 5887 5886 5886 5886 5886 5886 5886 5886 5887 5887 5887 5887 5888 5888 5888 5888 5888 5888 5888 5888 5887 5887 5887 5887 5886 5886 5886 5885 5885 5884 5883
5903 5901 5900 5899 5898 5896 5895 5894 5893 5891 5890 5889 5889 5888 5887 5887 5887 5887 5887 5887 5887 5887 5887 5888 5888 5888 5888 5888 5888 5888 5888 5887 5887 5887 5886 5886 5886 5885 5884 5884 5883 5883 5882
5904 5903 5902 5900 5899 5898 5897 5895 5894 5893 5892 5890 5890 5889 5888 5888 5888 5888 5888 5888 5888 5888 5888 5887 5888 5888 5888 5888 5888 5887 5887 5887 5886 5886 5886 5885 5885 5884 5883 5882 5882 5882 5881
5905 5904 5903 5901 5900 5899 5898 5896 5895 5894 5893 5891 5891 5890 5889 5889 5889 5889 5888 5888 5888 5888 5888 5888 5888 5888 5888 5888 5888 5887 5886 5885 5885 5885 5884 5884 5884 5883 5882 5881 5881 5880 5879
5906 5905 5904 5903 5901 5900 5899 5897 5896 5895 5894 5893 5892 5891 5891 5890 5890 5889 5889 5888 5888 5888 5888 5888 5888 5888 5888 5887 5887 5886 5886 5885 5885 5884 5884 5883 5883 5882 5881 5880 5880 5879 5878
5906 5905 5904 5903 5902 5901 5899 5898 5897 5896 5895 5893 5893 5892 5891 5891 5890 5890 5889 5889 5888 5888 5888 5888 5888 5887 5887 5887 5886 5886 5885 5884 5884 5884 5883 5883 5882 5881 5881 5880 5879 5877 5877
5907 5906 5905 5904 5902 5901 5900 5898 5897 5896 5895 5894 5893 5892 5892 5891 5890 5890 5889 5889 5888 5888 5888 5887 5887 5887 5886 5886 5886 5885 5885 5884 5884 5883 5883 5882 5881 5880 5880 5879 5878 5877 5875
5906 5905 5904 5903 5902 5901 5900 5899 5898 5896 5896 5894 5894 5893 5892 5891 5890 5890 5889 5888 5888 5888 5887 5887 5887 5886 5886 5885 5885 5885 5884 5884 5883 5883 5882 5881 5880 5879 5878 5878 5877 5876 5874
5906 5905 5904 5903 5902 5901 5900 5899 5898 5896 5896 5895 5894 5893 5892 5891 5890 5889 5889 5889 5888 5887 5887 5887 5886 5886 5885 5885 5884 5884 5883 5882 5882 5881 5881 5880 5879 5878 5877 5876 5875 5874 5873
5905 5904 5903 5902 5902 5901 5900 5898 5897 5896 5895 5895 5894 5893 5892 5891 5890 5889 5889 5888 5887 5887 5887 5886 5885 5885 5884 5883 5883 5882 5882 5881 5881 5880 5879 5878 5878 5877 5876 5875 5873 5872 5871
5903 5903 5902 5902 5901 5900 5899 5898 5897 5896 5895 5894 5893 5892 5891 5890 5889 5889 5888 5887 5887 5886 5886 5885 5884 5884 5883 5882 5881 5881 5880 5879 5879 5878 5877 5876 5876 5875 5874 5873 5872 5870 5869
5901 5900 5900 5900 5899 5898 5897 5897 5896 5895 5894 5893 5892 5891 5890 5889 5888 5888 5887 5886 5886 5885 5885 5884 5883 5883 5882 5880 5880 5879 5878 5878 5877 5876 5875 5875 5874 5873 5872 5871 5870 5868 5867
5899 5898 5898 5898 5897 5897 5896 5895 5894 5893 5892 5891 5890 5889 5888 5887 5886 5886 5885 5885 5884 5884 5883 5883 5882 5881 5880 5879 5879 5878 5877 5876 5875 5874 5873 5873 5872 5871 5870 5869 5868 5866 5865
5895 5896 5896 5895 5895 5894 5893 5892 5891 5891 5890 5889 5888 5887 5886 5885 5884 5884 5883 5883 5882 5882 5881 5881 5880 5880 5879 5878 5877 5876 5875 5874 5873 5872 5871 5871 5870 5869 5868 5866 5865 5863 5862
5891 5892 5892 5892 5892 5891 5890 5889 5889 5888 5887 5886 5886 5885 5884 5883 5883 5882 5882 5881 5880 5880 5879 5879 5878 5878 5877 5876 5875 5875 5873 5872 5871 5870 5869 5868 5867 5866 5865 5863 5862 5860 5858
5887 5888 5888 5888 5888 5887 5887 5886 5885 5885 5884 5883 5883 5883 5882 5881 5880 5880 5879 5879 5878 5878 5877 5876 5876 5875 5875 5874 5873 5872 5871 5870 5869 5868 5867 5865 5864 5863 5862 5860 5858 5856 5854
5883 5883 5883 5883 5883 5883 5883 5882 5882 5881 5881 5880 5880 5880 5879 5878 5878 5877 5877 5876 5876 5875 5875 5874 5873 5873 5872 5871 5870 5869 5868 5867 5866 5865 5863 5862 5861 5859 5858 5856 5854 5852 5849
5878 5878 5878 5878 5878 5878 5878 5878 5878 5877 5877 5877 5876 5876 5876 5875 5875 5874 5874 5874 5873 5872 5872 5871 5870 5869 5869 5868 5867 5866 5864 5863 5862 5861 5859 5858 5857 5855 5853 5851 5849 5847 5845
5872 5872 5873 5873 5873 5873 5873 5874 5873 5873 5873 5873 5873 5872 5872 5872 5871 5871 5870 5870 5869 5869 5868 5867 5866 5866 5865 5864 5863 5861 5860 5859 5858 5857 5855 5854 5852 5851 5848 5847 5845 5842 5840
5865 5866 5867 5867 5867 5868 5868 5868 5868 5868 5869 5869 5869 5868 5868 5867 5867 5867 5866 5865 5865 5865 5864 5863 5862 5861 5860 5859 5858 5857 5856 5855 5854 5852 5850 5849 5847 5845 5843 5841 5839 5836 5834
5858 5859 5860 5861 5861 5862 5862 5862 5862 5863 5864 5864 5864 5863 5863 5862 5862 5861 5861 5861 5860 5860 5859 5858 5858 5856 5855 5854 5853 5852 5850 5849 5848 5846 5845 5843 5841 5839 5837 5835 5833 5830 5827
5849 5851 5852 5854 5855 5855 5856 5857 5857 5857 5858 5858 5858 5858 5857 5857 5856 5856 5855 5855 5855 5854 5853 5853 5852 5851 5850 5849 5848 5846 5845 5843 5842 5840 5838 5836 5834 5832 5830 5828 5826 5823 5821
5841 5843 5844 5846 5847 5848 5849 5850 5850 5851 5851 5851 5851 5851 5851 5851 5850 5849 5849 5849 5848 5848 5847 5846 5846 5845 5844 5843 5841 5840 5838 5836 5835 5833 5831 5829 5827 5825 5823 5821 5818 5816 5813
5833 5834 5836 5838 5839 5840 5842 5843 5843 5843 5844 5844 5844 5844 5844 5844 5843 5843 5842 5842 5842 5841 5841 5840 5839 5838 5837 5836 5834 5833 5831 5830 5828 5826 5824 5822 5820 5818 5816 5813 5811 5808 5805
5824 5826 5827 5829 5831 5832 5834 5835 5836 5836 5837 5837 5837 5837 5837 5837 5836 5835 5835 5835 5835 5834 5834 5833 5832 5831 5830 5828 5827 5825 5824 5822 5821 5819 5817 5815 5812 5810 5808 5805 5803 5800 5797
5815 5817 5818 5820 5822 5824 5825 5827 5827 5828 5829 5829 5829 5829 5829 5829 5829 5828 5828 5827 5827 5827 5826 5825 5824 5823 5822 5821 5819 5818 5816 5814 5813 5810 5808 5806 5804 5802 5799 5797 5794 5792 5789